Fairbanks Ft. Wainwright, AK

2:13 PM AKDT on April 29, 2017 (GMT -0800)
Ladd Army Air Field

Weather History for PAFB - August, 2014

Change the Weather History Date:

Tuesday, August 19, 2014

  Actual Average Record
Temperature  
Mean Temperature 60 °F -  
Max Temperature 66 °F 62 °F 86 °F (2004)
Min Temperature 53 °F 46 °F 37 °F (1997)
Degree Days  
Heating Degree Days 4    
Growing Degree Days 10 (Base 50)    
Moisture  
Dew Point 51 °F    
Average Humidity 75    
Maximum Humidity 89    
Minimum Humidity 52    
Precipitation  
Precipitation 0.00 in - - ()
Sea Level Pressure  
Sea Level Pressure 29.98 in    
Wind  
Wind Speed 6 mph (WSW)    
Max Wind Speed 12 mph    
Max Gust Speed 18 mph    
Visibility 11 miles    
Events Rain    
Averages and records for this station are not official NWS values.
T = Trace of Precipitation, MM = Missing Value Source: NWS Daily Summary

Daily Weather History Graph

Daily Weather History Graph

Search for Another Location

Airport or City:

Trip Planner

Search our weather history database for the weather conditions in past years. The results will help you decide how hot, cold, wet, or windy it might be!

Date:

Astronomy

Aug. 19, 2014 Rise Set
Actual Time 5:50 AM AKDT 9:55 PM AKDT
Civil Twilight 4:46 AM AKDT 10:58 PM AKDT
Nautical Twilight 2:37 AM AKDT 12:57 AM AKDT
Astronomical Twilight Sun does not set Sun does not set
Moon 12:04 AM AKDT (8/19) 6:48 PM AKDT (8/19)
Length of Visible Light 18h 12m
Length of Day
16h 04m
Waning Crescent, 28% of the Moon is Illuminated
Aug 19
Waning Crescent
Aug 25
New
Sep 2
First Quarter
Sep 8
Full
Sep 15
Last Quarter

Hourly Weather History & Observations

Time (AKDT) Temp. Dew Point Humidity Pressure Visibility Wind Dir Wind Speed Gust Speed Precip Events Conditions
12:56 AM 57.0 °F 51.1 °F 81% 29.93 in 10.0 mi SW 6.9 mph - N/A   Overcast
1:56 AM 55.9 °F 51.1 °F 84% 29.94 in 10.0 mi Calm Calm - N/A   Overcast
2:56 AM 55.9 °F 50.0 °F 80% 29.95 in 10.0 mi SW 4.6 mph - N/A   Overcast
3:56 AM 55.0 °F 50.0 °F 83% 29.96 in 10.0 mi West 3.5 mph - 0.00 in   Overcast
4:56 AM 55.0 °F 51.1 °F 86% 29.96 in 10.0 mi SW 3.5 mph - N/A   Overcast
5:56 AM 55.0 °F 51.1 °F 86% 29.97 in 10.0 mi SW 6.9 mph - N/A   Overcast
6:20 AM 55.4 °F 51.8 °F 88% 29.97 in 10.0 mi SW 6.9 mph - N/A   Overcast
6:55 AM 55.4 °F 51.8 °F 88% 29.98 in 13.0 mi SW 8.1 mph - N/A   Mostly Cloudy
7:10 AM 55.4 °F 51.8 °F 88% 29.97 in 10.0 mi WSW 5.8 mph - N/A Rain Light Rain Showers
7:20 AM 55.4 °F 51.8 °F 88% 29.97 in 13.0 mi WSW 5.8 mph - N/A   Mostly Cloudy
7:55 AM 55.4 °F 51.8 °F 88% 29.98 in 13.0 mi WSW 5.8 mph - N/A   Light Drizzle
8:35 AM 55.4 °F 51.8 °F 88% 29.98 in 13.0 mi SW 6.9 mph - N/A   Overcast
8:55 AM 55.4 °F 51.8 °F 88% 29.99 in 13.0 mi SW 6.9 mph - N/A   Overcast
9:55 AM 57.2 °F 51.8 °F 82% 30.00 in 13.0 mi WSW 8.1 mph - N/A   Mostly Cloudy
10:55 AM 59.0 °F 51.8 °F 77% 30.00 in 13.0 mi West 10.4 mph - N/A   Mostly Cloudy
11:55 AM 59.0 °F 51.8 °F 77% 30.01 in 13.0 mi West 10.4 mph - N/A   Overcast
12:55 PM 60.8 °F 51.8 °F 72% 30.01 in 25.0 mi West 8.1 mph - N/A   Overcast
1:17 PM 60.8 °F 51.8 °F 72% 30.00 in 25.0 mi West 6.9 mph - N/A   Overcast
1:55 PM 62.6 °F 51.8 °F 68% 30.01 in 25.0 mi WSW 8.1 mph - N/A   Mostly Cloudy
2:55 PM 66.2 °F 51.8 °F 60% 29.99 in 25.0 mi WNW 11.5 mph 18.4 mph N/A   Mostly Cloudy
3:55 PM 64.4 °F 48.2 °F 56% 29.99 in 25.0 mi West 9.2 mph - N/A   Mostly Cloudy
4:55 PM 66.2 °F 48.2 °F 52% 29.98 in 25.0 mi WNW 5.8 mph - N/A   Scattered Clouds
5:20 PM 64.4 °F 51.8 °F 64% 29.97 in 25.0 mi WNW 6.9 mph - N/A Rain Light Rain Showers
5:28 PM 66.2 °F 51.8 °F 60% 29.96 in 25.0 mi Calm Calm - N/A   Scattered Clouds
5:55 PM 66.2 °F 50.0 °F 56% 29.97 in 25.0 mi West 9.2 mph - N/A   Scattered Clouds
6:55 PM 66.2 °F 50.0 °F 56% 29.97 in 25.0 mi WSW 6.9 mph - N/A   Scattered Clouds
7:55 PM 64.4 °F 51.8 °F 64% 29.97 in 25.0 mi SW 6.9 mph - N/A   Mostly Cloudy
7:56 PM 64.9 °F 50.0 °F 58% 29.97 in 10.0 mi SW 8.1 mph - N/A   Overcast
8:56 PM 64.9 °F 50.0 °F 58% 29.97 in 10.0 mi SW 4.6 mph - N/A   Overcast
9:56 PM 63.0 °F 51.1 °F 65% 29.98 in 10.0 mi SW 6.9 mph - N/A   Scattered Clouds
10:56 PM 55.0 °F 51.1 °F 86% 30.00 in 10.0 mi Calm Calm - N/A   Clear
11:56 PM 53.1 °F 50.0 °F 89% 30.01 in 10.0 mi Calm Calm - N/A   Clear